Regional Weather Roundup
Issued by NWS

Home | Current Version | Previous Version | Graphics & Text | Print | Product List | Glossary On
Versions: 1 2 3 4 5 6 7 8 9 10 11 12 13 14 15 16 17 18 19 20 21 22 23 24 25 26 27 28 29 30 31 32 33 34 35 36 37 38 39 40 41 42 43 44 45 46 47 48 49 50
000
ASUS43 KBIS 230210
RWRND

NORTH DAKOTA REGIONAL WEATHER ROUNDUP
NATIONAL WEATHER SERVICE BISMARCK ND
900 PM CDT FRI JUL 22 2016

NOTE: "FAIR" INDICATES FEW OR NO CLOUDS BELOW 12,000 FEET WITH NO
SIGNIFICANT WEATHER AND/OR OBSTRUCTIONS TO VISIBILITY.


NDZ001>003-009>011-017-230300-
NORTHWEST NORTH DAKOTA

CITY           SKY/WX    TMP DP  RH WIND       PRES   REMARKS
WILLISTON      CLOUDY    83  60  45 E20G26    29.87R
MINOT          CLOUDY    78  64  61 E12       29.93F
MINOT AFB      CLOUDY    76  63  63 E16       29.92F
$$

NDZ018>021-031>035-040>046-230300-
SOUTHWEST NORTH DAKOTA

CITY           SKY/WX    TMP DP  RH WIND       PRES   REMARKS
BISMARCK       LGT RAIN  73  67  81 SE20      29.98F
DICKINSON      LGT RAIN  68  65  90 E20G28    29.94R
GARRISON         N/A     79  69  71 E15       29.93F
HETTINGER ARPT CLOUDY    72  65  78 E20G25    29.94R
$$

NDZ004>008-012>016-024-026-027-054-230300-
NORTHEAST NORTH DAKOTA

CITY           SKY/WX    TMP DP  RH WIND       PRES   REMARKS
GRAND FORKS    PTCLDY    79  66  64 NE6       29.98R
GRND FRKS AFB  CLOUDY    77  65  67 E3        29.99R
DEVILS LAKE    CLOUDY    77  67  71 E10       30.01R
$$

NDZ022-023-025-028>030-036>039-047>053-230300-
SOUTHEAST NORTH DAKOTA

CITY           SKY/WX    TMP DP  RH WIND       PRES   REMARKS
FARGO          CLOUDY    79  69  71 N7        29.95R
JAMESTOWN      CLOUDY    75  71  87 E6        29.98R
$$





USA.gov is the U.S. government's official web portal to all federal, state and local government web resources and services.